BAW171 LGKR-EGLL

Flight info

Callsign BAW171
Flight time N/A
Altitude 36000
Route OLGAT DCT AIOSA DCT IPKIS DCT LABIN DCT RESIA DCT ELMUR L613 HOC DCT LUL DCT RLP DCT ROTSI DCT KOTUN DCT NINAL DCT ABNUR DCT DIMAL DCT ALESO
Aircraft A320/M-SDE3FGHIRWY/LB1

Departure

Time 2026-04-28 16:46
Airport Corfu Ioannis Kapodistrias International Airport (LGKR)

Arrival

Time N/A
Airport London Heathrow Airport (EGLL)
Time Latitude Longitude Altitude Speed Heading
2026-04-28 16:28 39.60766 19.91343 9 ft 0 kts 78°
2026-04-28 16:40 39.60763 19.91322 9 ft 2 kts 79°
2026-04-28 16:40 39.60760 19.91301 10 ft 2 kts 82°
2026-04-28 16:40 39.60757 19.91280 9 ft 2 kts 79°
2026-04-28 16:40 39.60754 19.91259 11 ft 2 kts 79°
2026-04-28 16:41 39.60751 19.91238 9 ft 2 kts 70°
2026-04-28 16:41 39.60743 19.91220 9 ft 2 kts 38°
2026-04-28 16:41 39.60730 19.91209 9 ft 2 kts
2026-04-28 16:41 39.60725 19.91208 9 ft 0 kts 345°
2026-04-28 16:42 39.60739 19.91204 11 ft 5 kts 345°
2026-04-28 16:43 39.60787 19.91187 9 ft 10 kts 345°
2026-04-28 16:43 39.60869 19.91170 9 ft 14 kts 348°
2026-04-28 16:43 39.60981 19.91141 9 ft 19 kts 348°
2026-04-28 16:43 39.61096 19.91110 10 ft 12 kts 349°
2026-04-28 16:44 39.61145 19.91099 10 ft 0 kts 349°
2026-04-28 16:44 39.61154 19.91097 11 ft 2 kts 349°
2026-04-28 16:44 39.61175 19.91091 10 ft 4 kts 347°
2026-04-28 16:44 39.61219 19.91040 10 ft 12 kts 296°
2026-04-28 16:45 39.61184 19.90958 10 ft 8 kts 177°
2026-04-28 16:45 39.61172 19.90962 10 ft 2 kts 166°
2026-04-28 16:45 39.60910 19.91029 9 ft 74 kts 169°
2026-04-28 16:45 39.60207 19.91212 11 ft 128 kts 168°
2026-04-28 16:46 39.59239 19.91466 223 ft 145 kts 171°
2026-04-28 16:46 39.58287 19.91811 710 ft 145 kts 145°
2026-04-28 16:46 39.57696 19.92858 1135 ft 145 kts 116°
2026-04-28 16:46 39.57017 19.93883 1424 ft 158 kts 141°
2026-04-28 16:47 39.56103 19.94810 1650 ft 177 kts 142°
2026-04-28 16:47 39.55068 19.95854 1846 ft 200 kts 142°
2026-04-28 16:47 39.53916 19.97036 2099 ft 222 kts 141°
2026-04-28 16:47 39.52694 19.98314 2778 ft 227 kts 141°
2026-04-28 16:48 39.51462 19.99616 3563 ft 228 kts 141°
2026-04-28 16:48 39.50232 20.00929 4321 ft 230 kts 141°
2026-04-28 16:48 39.49006 20.02246 5086 ft 232 kts 141°
2026-04-28 16:48 39.47761 20.03592 5883 ft 232 kts 142°
2026-04-28 16:49 39.46535 20.04926 6659 ft 233 kts 141°
2026-04-28 16:49 39.45289 20.06284 7390 ft 234 kts 141°
2026-04-28 16:49 39.44045 20.07670 8094 ft 240 kts 135°
2026-04-28 16:49 39.43220 20.09622 8489 ft 258 kts 99°
2026-04-28 16:50 39.43355 20.11920 9154 ft 265 kts 69°
2026-04-28 16:50 39.44402 20.13868 9910 ft 269 kts 38°
2026-04-28 16:50 39.46110 20.14828 10594 ft 271 kts
2026-04-28 16:50 39.47957 20.14446 11278 ft 272 kts 332°
2026-04-28 16:51 39.49362 20.12847 11983 ft 273 kts 305°
2026-04-28 16:51 39.50434 20.10818 12740 ft 273 kts 303°
2026-04-28 16:51 39.51488 20.08756 13471 ft 275 kts 303°
2026-04-28 16:51 39.52535 20.06696 14130 ft 278 kts 303°
2026-04-28 16:52 39.53606 20.04598 14755 ft 280 kts 303°
2026-04-28 16:52 39.54687 20.02488 15397 ft 281 kts 303°
2026-04-28 16:52 39.55778 20.00366 16036 ft 283 kts 304°
2026-04-28 16:52 39.56861 19.98265 16664 ft 284 kts 304°
2026-04-28 16:53 39.57966 19.96119 17293 ft 286 kts 304°
2026-04-28 16:53 39.59082 19.93955 17918 ft 288 kts 304°
2026-04-28 16:53 39.60184 19.91819 18503 ft 290 kts 304°
2026-04-28 16:53 39.61212 19.89533 18879 ft 300 kts 291°
2026-04-28 16:54 39.61584 19.86782 19003 ft 319 kts 271°
2026-04-28 16:54 39.61673 19.83867 19109 ft 334 kts 284°
2026-04-28 16:54 39.62657 19.81100 19242 ft 347 kts 308°
2026-04-28 16:54 39.63753 19.79543 19320 ft 357 kts 317°
2026-04-28 16:55 39.66411 19.76767 19596 ft 374 kts 323°
2026-04-28 16:55 39.68510 19.74721 20059 ft 379 kts 322°
2026-04-28 16:55 39.70566 19.72546 20578 ft 383 kts 319°
2026-04-28 16:55 39.72526 19.70238 21099 ft 386 kts 316°
2026-04-28 16:56 39.74449 19.67769 21606 ft 389 kts 314°
2026-04-28 16:56 39.76332 19.65220 22099 ft 392 kts 313°
2026-04-28 16:56 39.78207 19.62627 22582 ft 395 kts 313°
2026-04-28 16:56 39.80080 19.60033 23048 ft 398 kts 313°
2026-04-28 16:57 39.81990 19.57407 23511 ft 401 kts 313°
2026-04-28 16:57 39.83929 19.54770 23914 ft 403 kts 314°
2026-04-28 16:57 39.85884 19.52136 24302 ft 406 kts 314°
2026-04-28 16:57 39.87842 19.49518 24680 ft 408 kts 314°
2026-04-28 16:58 39.89832 19.46858 25063 ft 410 kts 314°
2026-04-28 16:58 39.91828 19.44186 25427 ft 412 kts 314°
2026-04-28 16:58 39.93841 19.41486 25782 ft 415 kts 314°
2026-04-28 16:58 39.95832 19.38812 26133 ft 417 kts 314°
2026-04-28 16:59 39.97860 19.36084 26492 ft 419 kts 314°
2026-04-28 16:59 39.99902 19.33331 26830 ft 421 kts 314°
2026-04-28 16:59 40.01944 19.30575 27178 ft 424 kts 314°
2026-04-28 16:59 40.03981 19.27828 27522 ft 426 kts 314°
2026-04-28 17:00 40.06047 19.25036 27874 ft 428 kts 314°
2026-04-28 17:00 40.08127 19.22222 28211 ft 430 kts 314°
2026-04-28 17:00 40.10220 19.19390 28548 ft 432 kts 314°
2026-04-28 17:00 40.12292 19.16582 28879 ft 434 kts 314°
2026-04-28 17:01 40.14387 19.13735 29347 ft 433 kts 314°
2026-04-28 17:01 40.16473 19.10893 29822 ft 432 kts 314°
2026-04-28 17:01 40.18532 19.08088 30288 ft 431 kts 314°
2026-04-28 17:01 40.20609 19.05257 30718 ft 429 kts 314°
2026-04-28 17:02 40.22680 19.02435 31139 ft 428 kts 314°
2026-04-28 17:02 40.24057 19.00594 31415 ft 427 kts 316°
2026-04-28 17:02 40.27138 18.97311 31974 ft 426 kts 322°
2026-04-28 17:02 40.29463 18.94982 32380 ft 425 kts 322°
2026-04-28 17:03 40.34148 18.90264 33222 ft 422 kts 322°
2026-04-28 17:03 40.36476 18.87908 33650 ft 421 kts 322°
2026-04-28 17:03 40.38770 18.85585 34061 ft 420 kts 321°
2026-04-28 17:04 40.43402 18.80890 34781 ft 417 kts 321°
2026-04-28 17:04 40.45699 18.78564 35179 ft 415 kts 321°
2026-04-28 17:05 40.50222 18.73970 35861 ft 411 kts 321°
2026-04-28 17:05 40.52490 18.71659 36034 ft 412 kts 321°
2026-04-28 17:06 40.59368 18.64640 36058 ft 422 kts 321°
2026-04-28 17:06 40.66349 18.57521 36060 ft 422 kts 321°
2026-04-28 17:07 40.70970 18.52797 36059 ft 421 kts 321°
2026-04-28 17:07 40.75603 18.48041 36063 ft 421 kts 321°
2026-04-28 17:08 40.80200 18.43315 36071 ft 421 kts 321°
2026-04-28 17:08 40.84837 18.38544 36064 ft 421 kts 321°
2026-04-28 17:09 40.89441 18.33800 36059 ft 422 kts 320°
2026-04-28 17:09 40.94077 18.29008 36079 ft 422 kts 320°
2026-04-28 17:10 40.98671 18.24242 36081 ft 421 kts 320°
2026-04-28 17:10 41.03302 18.19447 36081 ft 421 kts 320°
2026-04-28 17:11 41.07898 18.14678 36075 ft 421 kts 320°
2026-04-28 17:11 41.12491 18.09905 36079 ft 421 kts 320°
2026-04-28 17:12 41.17096 18.05103 36068 ft 420 kts 320°
2026-04-28 17:12 41.21696 18.00294 36088 ft 420 kts 320°
2026-04-28 17:13 41.26284 17.95484 36084 ft 419 kts 320°
2026-04-28 17:13 41.30838 17.90716 36080 ft 418 kts 320°
2026-04-28 17:14 41.35419 17.85910 36079 ft 418 kts 320°
2026-04-28 17:14 41.39968 17.81136 36071 ft 418 kts 320°
2026-04-28 17:15 41.44541 17.76311 36066 ft 418 kts 320°
2026-04-28 17:15 41.49082 17.71507 36062 ft 418 kts 320°
2026-04-28 17:16 41.53639 17.66679 36060 ft 418 kts 320°
2026-04-28 17:16 41.58190 17.61861 36068 ft 418 kts 320°
2026-04-28 17:17 41.62724 17.57039 36065 ft 418 kts 320°
2026-04-28 17:17 41.67287 17.52186 36076 ft 418 kts 320°
2026-04-28 17:18 41.71815 17.47360 36080 ft 417 kts 320°
2026-04-28 17:18 41.76356 17.42517 36080 ft 416 kts 320°
2026-04-28 17:19 41.80872 17.37691 36069 ft 416 kts 320°
2026-04-28 17:19 41.85371 17.32869 36070 ft 416 kts 320°
2026-04-28 17:20 41.89157 17.28798 36067 ft 416 kts 319°
2026-04-28 17:20 41.94411 17.23112 36079 ft 415 kts 319°
2026-04-28 17:21 41.98786 17.18129 36073 ft 414 kts 317°
2026-04-28 17:22 42.05310 17.10537 36069 ft 414 kts 317°
2026-04-28 17:22 42.09691 17.05480 36066 ft 414 kts 317°
2026-04-28 17:23 42.16238 16.97941 36075 ft 414 kts 318°
2026-04-28 17:23 42.20620 16.92889 36075 ft 413 kts 317°
2026-04-28 17:24 42.24960 16.87856 36071 ft 413 kts 317°
2026-04-28 17:24 42.29322 16.82789 36072 ft 413 kts 317°
2026-04-28 17:25 42.35124 16.76036 36070 ft 412 kts 317°
2026-04-28 17:26 42.39449 16.70996 36069 ft 412 kts 317°
2026-04-28 17:26 42.43796 16.65921 36072 ft 412 kts 317°
2026-04-28 17:27 42.48140 16.60839 36072 ft 412 kts 317°
2026-04-28 17:27 42.52457 16.55779 36071 ft 412 kts 317°
2026-04-28 17:28 42.56801 16.50668 36071 ft 412 kts 317°
2026-04-28 17:28 42.63290 16.43031 36068 ft 412 kts 317°
2026-04-28 17:29 42.67596 16.37953 36081 ft 411 kts 317°
2026-04-28 17:30 42.74063 16.30293 36067 ft 411 kts 317°
2026-04-28 17:30 42.80544 16.22603 36068 ft 412 kts 317°
2026-04-28 17:31 42.87014 16.14923 36068 ft 412 kts 317°
2026-04-28 17:32 42.93470 16.07215 36080 ft 411 kts 317°
2026-04-28 17:32 42.97757 16.02077 36074 ft 411 kts 317°
2026-04-28 17:33 43.02039 15.96949 36066 ft 410 kts 317°
2026-04-28 17:33 43.05612 15.92656 36063 ft 411 kts 317°
2026-04-28 17:34 43.10607 15.86634 36062 ft 411 kts 317°
2026-04-28 17:34 43.14889 15.81475 36073 ft 411 kts 317°
2026-04-28 17:35 43.19185 15.76296 36068 ft 410 kts 317°
2026-04-28 17:35 43.23475 15.71100 36064 ft 410 kts 316°
2026-04-28 17:36 43.27730 15.65929 36063 ft 410 kts 316°
2026-04-28 17:36 43.32017 15.60716 36055 ft 410 kts 316°
2026-04-28 17:37 43.36288 15.55529 36068 ft 411 kts 316°
2026-04-28 17:37 43.40561 15.50325 36069 ft 411 kts 316°
2026-04-28 17:38 43.44838 15.45102 36062 ft 410 kts 316°
2026-04-28 17:38 43.49113 15.39868 36061 ft 410 kts 316°
2026-04-28 17:39 43.53361 15.34655 36063 ft 411 kts 316°
2026-04-28 17:40 43.59741 15.26790 36068 ft 411 kts 316°
2026-04-28 17:40 43.64016 15.21523 36069 ft 411 kts 316°
2026-04-28 17:41 43.68259 15.16289 36073 ft 411 kts 316°
2026-04-28 17:41 43.72536 15.10998 36070 ft 411 kts 316°
2026-04-28 17:42 43.76773 15.05743 36073 ft 411 kts 316°
2026-04-28 17:42 43.81013 15.00471 36074 ft 411 kts 316°
2026-04-28 17:43 43.85283 14.95164 36068 ft 411 kts 316°
2026-04-28 17:43 43.89504 14.89894 36060 ft 411 kts 316°
2026-04-28 17:44 43.93770 14.84560 36062 ft 412 kts 316°
2026-04-28 17:44 43.98008 14.79250 36067 ft 412 kts 316°
2026-04-28 17:45 44.02244 14.73921 36068 ft 412 kts 316°
2026-04-28 17:45 44.06502 14.68562 36076 ft 411 kts 316°
2026-04-28 17:46 44.10749 14.63208 36065 ft 411 kts 316°
2026-04-28 17:46 44.14967 14.57884 36063 ft 411 kts 316°
2026-04-28 17:47 44.19211 14.52512 36062 ft 411 kts 316°
2026-04-28 17:47 44.23424 14.47162 36066 ft 411 kts 316°
2026-04-28 17:48 44.27661 14.41780 36077 ft 411 kts 315°
2026-04-28 17:48 44.31875 14.36421 36067 ft 411 kts 315°
2026-04-28 17:49 44.36088 14.31017 36062 ft 410 kts 312°
2026-04-28 17:49 44.39575 14.24807 36059 ft 407 kts 304°
2026-04-28 17:50 44.42915 14.18382 36054 ft 408 kts 305°
2026-04-28 17:50 44.46239 14.11985 36054 ft 408 kts 305°
2026-04-28 17:51 44.49562 14.05578 36053 ft 408 kts 304°
2026-04-28 17:51 44.52890 13.99131 36067 ft 407 kts 304°
2026-04-28 17:52 44.56188 13.92715 36062 ft 407 kts 304°
2026-04-28 17:52 44.61168 13.83047 36064 ft 406 kts 304°
2026-04-28 17:53 44.64459 13.76625 36062 ft 406 kts 304°
2026-04-28 17:53 44.67757 13.70162 36055 ft 406 kts 304°
2026-04-28 17:54 44.71055 13.63689 36054 ft 407 kts 304°
2026-04-28 17:54 44.74332 13.57242 36058 ft 407 kts 304°
2026-04-28 17:55 44.77630 13.50746 36071 ft 407 kts 304°
2026-04-28 17:55 44.80914 13.44285 36065 ft 407 kts 304°
2026-04-28 17:56 44.84208 13.37778 36055 ft 406 kts 304°
2026-04-28 17:56 44.87467 13.31317 36056 ft 406 kts 304°
2026-04-28 17:57 44.90735 13.24803 36054 ft 406 kts 304°
2026-04-28 17:57 44.93981 13.18327 36054 ft 405 kts 304°
2026-04-28 17:58 44.97229 13.11855 36050 ft 405 kts 304°
2026-04-28 17:58 45.00505 13.05361 36054 ft 405 kts 304°
2026-04-28 17:59 45.03821 12.98944 36071 ft 405 kts 304°
2026-04-28 17:59 45.07157 12.92500 36065 ft 404 kts 304°
2026-04-28 18:00 45.10444 12.86099 36062 ft 403 kts 304°
2026-04-28 18:00 45.13725 12.79675 36059 ft 403 kts 304°
2026-04-28 18:01 45.17014 12.73228 36044 ft 403 kts 304°
2026-04-28 18:01 45.20306 12.66768 36043 ft 403 kts 304°
2026-04-28 18:02 45.23576 12.60341 36046 ft 403 kts 304°
2026-04-28 18:02 45.26857 12.53870 36044 ft 403 kts 304°
2026-04-28 18:03 45.30119 12.47416 36056 ft 403 kts 304°
2026-04-28 18:03 45.33401 12.40921 36049 ft 403 kts 304°
2026-04-28 18:04 45.36648 12.34471 36050 ft 403 kts 304°
2026-04-28 18:04 45.39921 12.27963 36047 ft 403 kts 304°
2026-04-28 18:05 45.42629 12.22563 36047 ft 403 kts 303°
2026-04-28 18:05 45.46417 12.14983 36057 ft 403 kts 303°
2026-04-28 18:06 45.49673 12.08462 36061 ft 403 kts 303°
2026-04-28 18:06 45.52906 12.01975 36067 ft 403 kts 303°
2026-04-28 18:07 45.56155 11.95437 36086 ft 402 kts 303°
2026-04-28 18:07 45.59368 11.88948 36076 ft 402 kts 303°
2026-04-28 18:08 45.62602 11.82397 36070 ft 401 kts 303°
2026-04-28 18:08 45.65817 11.75876 36066 ft 401 kts 303°
2026-04-28 18:09 45.69023 11.69366 36065 ft 401 kts 303°
2026-04-28 18:09 45.72226 11.62855 36063 ft 401 kts 303°
2026-04-28 18:10 45.75443 11.56303 36084 ft 401 kts 303°
2026-04-28 18:10 45.78643 11.49758 36098 ft 401 kts 303°
2026-04-28 18:11 45.81834 11.43216 36111 ft 401 kts 303°
2026-04-28 18:11 45.85027 11.36642 36138 ft 401 kts 303°
2026-04-28 18:12 45.88197 11.30099 36136 ft 401 kts 303°
2026-04-28 18:12 45.91380 11.23525 36142 ft 401 kts 303°
2026-04-28 18:13 45.94565 11.16931 36158 ft 401 kts 303°
2026-04-28 18:13 45.97213 11.11448 36160 ft 401 kts 303°
2026-04-28 18:14 46.00915 11.03760 36159 ft 402 kts 303°
2026-04-28 18:14 46.04100 10.97119 36170 ft 402 kts 302°
2026-04-28 18:15 46.07265 10.90510 36198 ft 402 kts 303°
2026-04-28 18:15 46.10436 10.83872 36190 ft 402 kts 303°
2026-04-28 18:16 46.13584 10.77266 36182 ft 402 kts 302°
2026-04-28 18:16 46.16238 10.71687 36183 ft 402 kts 302°
2026-04-28 18:17 46.19389 10.65054 36181 ft 402 kts 302°
2026-04-28 18:17 46.22533 10.58393 36174 ft 402 kts 302°
2026-04-28 18:18 46.25676 10.51723 36172 ft 403 kts 302°
2026-04-28 18:18 46.28322 10.46104 36173 ft 403 kts 302°
2026-04-28 18:19 46.31998 10.38278 36176 ft 403 kts 302°
2026-04-28 18:19 46.35139 10.31583 36160 ft 403 kts 301°
2026-04-28 18:20 46.38295 10.24858 36155 ft 403 kts 302°
2026-04-28 18:20 46.41423 10.18175 36148 ft 403 kts 301°
2026-04-28 18:21 46.44556 10.11426 36149 ft 403 kts 301°
2026-04-28 18:21 46.47695 10.04712 36150 ft 404 kts 304°
2026-04-28 18:22 46.51406 9.98505 36153 ft 406 kts 308°
2026-04-28 18:22 46.55146 9.92368 36167 ft 406 kts 308°
2026-04-28 18:23 46.58887 9.86194 36162 ft 406 kts 308°
2026-04-28 18:23 46.62604 9.80056 36158 ft 406 kts 308°
2026-04-28 18:24 46.65707 9.74915 36139 ft 406 kts 308°
2026-04-28 18:24 46.70068 9.67672 36134 ft 406 kts 308°
2026-04-28 18:25 46.73765 9.61516 36116 ft 405 kts 308°
2026-04-28 18:26 46.79337 9.52214 36124 ft 405 kts 308°
2026-04-28 18:26 46.83054 9.45999 36103 ft 405 kts 307°
2026-04-28 18:27 46.86743 9.39815 36091 ft 405 kts 307°
2026-04-28 18:27 46.90445 9.33587 36082 ft 406 kts 307°
2026-04-28 18:28 46.94155 9.27319 36079 ft 406 kts 307°
2026-04-28 18:28 46.97847 9.21082 36078 ft 407 kts 307°
2026-04-28 18:29 47.01559 9.14809 36078 ft 407 kts 307°
2026-04-28 18:29 47.05244 9.08563 36093 ft 407 kts 307°
2026-04-28 18:30 47.08951 9.02272 36090 ft 406 kts 307°
2026-04-28 18:30 47.12640 8.95980 36086 ft 406 kts 306°
2026-04-28 18:31 47.15928 8.89374 36085 ft 400 kts 294°
2026-04-28 18:31 47.17969 8.81850 36082 ft 397 kts 288°
2026-04-28 18:32 47.19910 8.74219 36088 ft 397 kts 288°
2026-04-28 18:32 47.21852 8.66592 36095 ft 398 kts 288°
2026-04-28 18:33 47.23778 8.58993 36098 ft 398 kts 288°
2026-04-28 18:33 47.25702 8.51366 36089 ft 399 kts 288°
2026-04-28 18:34 47.27633 8.43685 36061 ft 399 kts 288°
2026-04-28 18:34 47.29550 8.36055 36070 ft 398 kts 288°
2026-04-28 18:35 47.31477 8.28395 36047 ft 398 kts 288°
2026-04-28 18:35 47.33386 8.20720 36055 ft 398 kts 288°
2026-04-28 18:36 47.35275 8.13082 36056 ft 398 kts 288°
2026-04-28 18:36 47.37162 8.05429 36054 ft 398 kts 288°
2026-04-28 18:37 47.39056 7.97736 36056 ft 398 kts 288°
2026-04-28 18:37 47.40944 7.90038 36057 ft 398 kts 288°
2026-04-28 18:38 47.42817 7.82370 36059 ft 399 kts 288°
2026-04-28 18:38 47.44701 7.74633 36062 ft 399 kts 288°
2026-04-28 18:39 47.46563 7.66939 36062 ft 398 kts 285°
2026-04-28 18:39 47.47932 7.59003 36064 ft 397 kts 282°
2026-04-28 18:40 47.49245 7.51100 36062 ft 397 kts 282°
2026-04-28 18:40 47.50572 7.43141 36057 ft 398 kts 282°
2026-04-28 18:41 47.51897 7.35182 36051 ft 399 kts 282°
2026-04-28 18:41 47.53207 7.27250 36059 ft 399 kts 282°
2026-04-28 18:42 47.54521 7.19233 36051 ft 399 kts 282°
2026-04-28 18:42 47.55819 7.11277 36054 ft 399 kts 281°
2026-04-28 18:43 47.57117 7.03303 36048 ft 400 kts 281°
2026-04-28 18:43 47.58420 6.95272 36060 ft 400 kts 281°
2026-04-28 18:44 47.59712 6.87239 36065 ft 401 kts 281°
2026-04-28 18:44 47.61637 6.75212 36068 ft 401 kts 281°
2026-04-28 18:45 47.62923 6.67153 36055 ft 401 kts 281°
2026-04-28 18:45 47.64201 6.59121 36050 ft 402 kts 281°
2026-04-28 18:46 47.65478 6.51021 36034 ft 402 kts 281°
2026-04-28 18:46 47.66750 6.42922 36036 ft 403 kts 281°
2026-04-28 18:47 47.68002 6.34865 36035 ft 403 kts 281°
2026-04-28 18:47 47.69307 6.26804 36038 ft 404 kts 283°
2026-04-28 18:48 47.70987 6.18814 36031 ft 405 kts 285°
2026-04-28 18:48 47.72787 6.10900 36030 ft 405 kts 285°
2026-04-28 18:49 47.73961 6.05562 36030 ft 405 kts 285°
2026-04-28 18:49 47.76207 5.94911 36032 ft 405 kts 284°
2026-04-28 18:50 47.77871 5.86881 36036 ft 406 kts 284°
2026-04-28 18:50 47.79534 5.78895 36032 ft 407 kts 284°
2026-04-28 18:51 47.81208 5.70868 36028 ft 407 kts 284°
2026-04-28 18:51 47.82890 5.62794 36031 ft 408 kts 284°
2026-04-28 18:52 47.84558 5.54714 36034 ft 408 kts 284°
2026-04-28 18:52 47.86209 5.46677 36042 ft 408 kts 283°
2026-04-28 18:53 47.87873 5.38567 36027 ft 409 kts 283°
2026-04-28 18:53 47.89515 5.30478 36032 ft 409 kts 284°
2026-04-28 18:54 47.92047 5.22804 36022 ft 418 kts 302°
2026-04-28 18:54 47.95896 5.16255 36025 ft 422 kts 307°
2026-04-28 18:55 47.99190 5.10837 36025 ft 422 kts 307°
2026-04-28 18:55 48.03788 5.03244 36020 ft 423 kts 307°
2026-04-28 18:56 48.07724 4.96720 36015 ft 424 kts 307°
2026-04-28 18:56 48.11685 4.90157 36014 ft 425 kts 307°
2026-04-28 18:57 48.15643 4.83588 36035 ft 425 kts 307°
2026-04-28 18:57 48.19573 4.77031 36033 ft 424 kts 307°
2026-04-28 18:58 48.23516 4.70422 36051 ft 424 kts 307°
2026-04-28 18:58 48.27451 4.63803 36034 ft 425 kts 307°
2026-04-28 18:59 48.31372 4.57204 36031 ft 425 kts 307°
2026-04-28 18:59 48.35297 4.50576 36040 ft 425 kts 307°
2026-04-28 19:00 48.39249 4.43897 36037 ft 426 kts 307°
2026-04-28 19:00 48.43178 4.37254 36041 ft 426 kts 307°
2026-04-28 19:01 48.47130 4.30546 36059 ft 427 kts 307°
2026-04-28 19:01 48.51052 4.23856 36044 ft 428 kts 307°
2026-04-28 19:02 48.55006 4.17096 36041 ft 429 kts 307°
2026-04-28 19:02 48.58943 4.10364 36053 ft 429 kts 306°
2026-04-28 19:03 48.62898 4.03579 36050 ft 430 kts 307°
2026-04-28 19:03 48.66854 3.96786 36049 ft 429 kts 306°
2026-04-28 19:04 48.70776 3.90001 36050 ft 429 kts 306°
2026-04-28 19:04 48.74100 3.84397 36049 ft 431 kts 309°
2026-04-28 19:05 48.79096 3.76966 36054 ft 433 kts 311°
2026-04-28 19:05 48.82750 3.71732 36058 ft 433 kts 311°
2026-04-28 19:06 48.87087 3.65384 36064 ft 432 kts 310°
2026-04-28 19:06 48.91346 3.58990 36066 ft 432 kts 310°
2026-04-28 19:07 48.95624 3.52521 36066 ft 432 kts 310°
2026-04-28 19:07 48.99877 3.46113 36057 ft 433 kts 310°
2026-04-28 19:08 49.04182 3.39640 36059 ft 435 kts 310°
2026-04-28 19:08 49.08495 3.33119 36049 ft 436 kts 310°
2026-04-28 19:09 49.12787 3.26599 36046 ft 437 kts 310°
2026-04-28 19:09 49.17110 3.20018 36046 ft 438 kts 310°
2026-04-28 19:10 49.21411 3.13457 36056 ft 439 kts 310°
2026-04-28 19:10 49.25720 3.06873 36073 ft 440 kts 310°
2026-04-28 19:11 49.30067 3.00222 36053 ft 442 kts 311°
2026-04-28 19:11 49.34436 2.93506 36053 ft 444 kts 311°
2026-04-28 19:12 49.38787 2.86799 36059 ft 445 kts 311°
2026-04-28 19:12 49.43173 2.80026 36068 ft 446 kts 311°
2026-04-28 19:13 49.47525 2.73286 36069 ft 446 kts 311°
2026-04-28 19:13 49.51903 2.66487 36089 ft 447 kts 311°
2026-04-28 19:14 49.56304 2.59651 36073 ft 449 kts 311°
2026-04-28 19:14 49.60738 2.52885 36071 ft 453 kts 316°
2026-04-28 19:15 49.65775 2.46923 36080 ft 456 kts 320°
2026-04-28 19:15 49.69982 2.41995 36087 ft 456 kts 320°
2026-04-28 19:16 49.75866 2.35061 36097 ft 457 kts 320°
2026-04-28 19:16 49.80934 2.29066 36110 ft 457 kts 320°
2026-04-28 19:17 49.85965 2.23103 36125 ft 457 kts 321°
2026-04-28 19:17 49.91038 2.17094 36118 ft 459 kts 321°
2026-04-28 19:18 49.96090 2.11101 36114 ft 459 kts 321°
2026-04-28 19:18 50.01174 2.05032 36113 ft 461 kts 321°
2026-04-28 19:19 50.06267 1.98935 36126 ft 461 kts 321°
2026-04-28 19:19 50.11326 1.92866 36129 ft 461 kts 321°
2026-04-28 19:20 50.16415 1.86732 36140 ft 462 kts 320°
2026-04-28 19:20 50.21095 1.79851 36139 ft 462 kts 315°
2026-04-28 19:21 50.25686 1.72846 36132 ft 465 kts 315°
2026-04-28 19:21 50.30332 1.65755 36137 ft 466 kts 315°
2026-04-28 19:22 50.32657 1.62202 35859 ft 467 kts 315°
2026-04-28 19:22 50.34212 1.59819 35073 ft 473 kts 315°
2026-04-28 19:22 50.37347 1.54999 33358 ft 479 kts 315°
2026-04-28 19:22 50.39728 1.51331 32514 ft 479 kts 315°
2026-04-28 19:23 50.42117 1.47651 31614 ft 480 kts 317°
2026-04-28 19:23 50.44450 1.44057 31160 ft 471 kts 317°
2026-04-28 19:23 50.46779 1.40463 30539 ft 468 kts 317°
2026-04-28 19:23 50.49096 1.36885 29908 ft 465 kts 318°
2026-04-28 19:24 50.51367 1.33270 29324 ft 460 kts 316°
2026-04-28 19:24 50.53529 1.29661 28770 ft 456 kts 315°
2026-04-28 19:24 50.55659 1.25993 28214 ft 451 kts 314°
2026-04-28 19:24 50.57762 1.22324 27659 ft 447 kts 314°
2026-04-28 19:25 50.59849 1.18787 27126 ft 443 kts 316°
2026-04-28 19:25 50.61992 1.15322 26594 ft 439 kts 317°
2026-04-28 19:25 50.64155 1.11935 26071 ft 436 kts 317°
2026-04-28 19:25 50.66321 1.08593 25569 ft 432 kts 319°
2026-04-28 19:26 50.68444 1.05314 25064 ft 430 kts 319°
2026-04-28 19:26 50.70573 1.01998 24591 ft 428 kts 318°
2026-04-28 19:26 50.72680 0.98679 24105 ft 426 kts 318°
2026-04-28 19:26 50.74745 0.95395 23630 ft 424 kts 317°
2026-04-28 19:27 50.76819 0.92075 23177 ft 422 kts 318°
2026-04-28 19:27 50.78881 0.88766 22692 ft 419 kts 318°
2026-04-28 19:27 50.80901 0.85527 22238 ft 416 kts 318°
2026-04-28 19:27 50.82935 0.82263 21757 ft 413 kts 318°
2026-04-28 19:28 50.84954 0.79027 21282 ft 410 kts 317°
2026-04-28 19:28 50.86931 0.75858 20799 ft 408 kts 317°
2026-04-28 19:28 50.88930 0.72654 20322 ft 405 kts 318°
2026-04-28 19:28 50.90911 0.69476 19843 ft 403 kts 317°
2026-04-28 19:29 50.92875 0.66321 19356 ft 401 kts 317°
2026-04-28 19:29 50.94175 0.64231 19033 ft 400 kts 317°
2026-04-28 19:29 50.96760 0.60069 18345 ft 397 kts 317°
2026-04-28 19:29 50.98699 0.56942 17615 ft 399 kts 317°
2026-04-28 19:30 51.00634 0.53819 16892 ft 401 kts 317°
2026-04-28 19:30 51.02593 0.50649 16219 ft 402 kts 317°
2026-04-28 19:30 51.04541 0.47481 15915 ft 392 kts 316°
2026-04-28 19:30 51.06412 0.44425 15813 ft 377 kts 317°
2026-04-28 19:31 51.08207 0.41545 15702 ft 364 kts 319°
2026-04-28 19:31 51.10004 0.38770 15484 ft 355 kts 320°
2026-04-28 19:31 51.11787 0.36082 15185 ft 350 kts 320°
2026-04-28 19:31 51.13534 0.33467 14893 ft 345 kts 320°
2026-04-28 19:32 51.15268 0.30860 14596 ft 341 kts 320°
2026-04-28 19:32 51.16993 0.28248 14310 ft 337 kts 320°
2026-04-28 19:32 51.18690 0.25665 13978 ft 334 kts 319°
2026-04-28 19:32 51.20335 0.23145 13647 ft 331 kts 319°
2026-04-28 19:33 51.21992 0.20593 13316 ft 327 kts 319°
2026-04-28 19:33 51.23627 0.18072 12980 ft 324 kts 319°
2026-04-28 19:33 51.25247 0.15578 12642 ft 321 kts 319°
2026-04-28 19:33 51.26849 0.13114 12123 ft 325 kts 319°
2026-04-28 19:34 51.28485 0.10594 11598 ft 328 kts 319°
2026-04-28 19:34 51.29934 0.08358 11155 ft 331 kts 319°
2026-04-28 19:34 51.31598 0.05788 10636 ft 333 kts 318°
2026-04-28 19:34 51.33058 0.02886 10084 ft 338 kts 300°
2026-04-28 19:35 51.33878 -0.00597 9550 ft 340 kts 288°
2026-04-28 19:35 51.34564 -0.04232 9013 ft 341 kts 288°
2026-04-28 19:35 51.35242 -0.07874 8495 ft 341 kts 288°